DW7210 Weather Reports


Display with metric or nautical units.
time (UTC)temp
F
wind
direction
speed
MPH
gust
MPH
rain 1hr
in
rain 24hr
in
rain mn
in
humidity
%
barometer
mb
20200219194405 57 105 1.0 6.0 0.00 0.00 0.00 49 1016.2
20200219193405 56 105 2.0 6.0 0.00 0.00 0.00 49 1016.4
20200219192405 57 98 1.0 6.0 0.00 0.00 0.00 49 1016.4
20200219191405 56 107 3.0 10.0 0.00 0.00 0.00 49 1016.5
20200219190405 56 121 6.0 12.0 0.00 0.00 0.00 50 1016.5
20200219185405 56 107 4.0 9.0 0.00 0.00 0.00 50 1016.5
20200219184405 55 109 3.0 9.0 0.00 0.00 0.00 52 1016.7
20200219183405 54 128 0.0 7.0 0.00 0.00 0.00 52 1017.1
20200219182405 54 111 1.0 7.0 0.00 0.00 0.00 53 1017.3
20200219181405 54 109 3.0 12.0 0.00 0.00 0.00 53 1017.3
20200219180405 53 108 1.0 6.0 0.00 0.00 0.00 54 1017.4
20200219175405 52 93 1.0 9.0 0.00 0.00 0.00 55 1017.5
20200219174405 52 111 3.0 7.0 0.00 0.00 0.00 55 1017.4
20200219173405 52 108 2.0 7.0 0.00 0.00 0.00 56 1017.5
20200219172405 51 113 2.0 12.0 0.00 0.00 0.00 57 1017.6
20200219171405 51 110 5.0 15.0 0.00 0.00 0.00 56 1017.6
20200219170405 52 101 5.0 18.0 0.00 0.00 0.00 57 1017.6
20200219165405 50 110 2.0 12.0 0.00 0.00 0.00 59 1017.5
20200219164405 49 109 3.0 12.0 0.00 0.00 0.00 60 1017.3
20200219163405 49 111 4.0 14.0 0.00 0.00 0.00 60 1017.1
20200219162405 49 109 3.0 14.0 0.00 0.00 0.00 60 1017.2
20200219161405 48 102 5.0 14.0 0.00 0.00 0.00 61 1017.1
20200219160405 48 108 6.0 17.0 0.00 0.00 0.00 61 1017.0
20200219155405 48 107 7.0 16.0 0.00 0.00 0.00 62 1017.1
20200219154405 47 110 5.0 16.0 0.00 0.00 0.00 62 1017.0
20200219153405 47 105 6.0 16.0 0.00 0.00 0.00 62 1017.2
20200219152405 48 116 3.0 15.0 0.00 0.00 0.00 62 1017.2
20200219151405 47 114 5.0 18.0 0.00 0.00 0.00 62 1016.8
20200219150405 47 111 7.0 18.0 0.00 0.00 0.00 63 1016.6
20200219145405 47 111 3.0 17.0 0.00 0.00 0.00 63 1016.7
20200219144405 47 102 5.0 12.0 0.00 0.00 0.00 63 1016.5
20200219143405 47 107 4.0 16.0 0.00 0.00 0.00 63 1016.3
20200219142405 47 117 4.0 14.0 0.00 0.00 0.00 63 1016.1
20200219141405 46 110 5.0 18.0 0.00 0.00 0.00 63 1016.0
20200219140405 47 104 7.0 21.0 0.00 0.00 0.00 62 1016.0
20200219135405 47 98 7.0 18.0 0.00 0.00 0.00 62 1015.8
20200219134405 47 102 7.0 20.0 0.00 0.00 0.00 62 1015.7
20200219133405 47 113 8.0 20.0 0.00 0.00 0.00 61 1015.7
20200219132405 47 84 6.0 18.0 0.00 0.00 0.00 61 1015.5
20200219131405 47 107 7.0 20.0 0.00 0.00 0.00 61 1015.6
20200219130405 47 99 7.0 20.0 0.00 0.00 0.00 61 1015.6
20200219125405 47 112 6.0 22.0 0.00 0.00 0.00 61 1015.3
20200219124405 47 105 11.0 22.0 0.00 0.00 0.00 61 1015.2
20200219123405 47 119 9.0 24.0 0.00 0.00 0.00 61 1015.2
20200219122405 47 105 9.0 20.0 0.00 0.00 0.00 61 1015.2
20200219121405 47 113 9.0 25.0 0.00 0.00 0.00 61 1015.1
20200219120405 47 103 9.0 22.0 0.00 0.00 0.00 60 1015.0
20200219115405 47 107 9.0 22.0 0.00 0.00 0.00 60 1014.9
20200219114405 47 117 9.0 22.0 0.00 0.00 0.00 60 1014.9
20200219113405 47 107 9.0 23.0 0.00 0.00 0.00 59 1014.9
20200219112405 47 109 9.0 23.0 0.00 0.00 0.00 60 1014.7
20200219111405 47 94 9.0 28.0 0.00 0.00 0.00 59 1014.7
20200219110405 47 107 12.0 24.0 0.00 0.00 0.00 59 1014.5
20200219105405 47 111 12.0 26.0 0.00 0.00 0.00 59 1014.5
20200219104405 47 117 12.0 29.0 0.00 0.00 0.00 59 1014.5
20200219103405 47 99 12.0 23.0 0.00 0.00 0.00 58 1014.6
20200219102405 47 106 10.0 25.0 0.00 0.00 0.00 58 1014.7
20200219101408 47 100 13.0 20.0 0.00 0.00 0.00 58 1014.5
20200219100405 48 112 10.0 25.0 0.00 0.00 0.00 57 1014.6
20200219095406 48 104 12.0 23.0 0.00 0.00 0.00 57 1014.4
20200219094405 48 108 12.0 23.0 0.00 0.00 0.00 56 1014.7
20200219093405 49 96 8.0 23.0 0.00 0.00 0.00 55 1014.6
20200219092405 49 108 14.0 25.0 0.00 0.00 0.00 54 1014.6
20200219091405 49 110 13.0 24.0 0.00 0.00 0.00 54 1014.7
20200219090405 49 105 13.0 26.0 0.00 0.00 0.00 53 1014.5
20200219085405 49 110 14.0 24.0 0.00 0.00 0.00 53 1014.5
20200219084405 49 107 14.0 26.0 0.00 0.00 0.00 52 1014.7
20200219083405 50 111 12.0 26.0 0.00 0.00 0.00 52 1014.6
20200219082405 50 94 12.0 25.0 0.00 0.00 0.00 51 1014.8
20200219081405 50 98 14.0 26.0 0.00 0.00 0.00 51 1014.6
20200219080405 50 97 12.0 33.0 0.00 0.00 0.00 51 1014.8
20200219075405 50 108 14.0 28.0 0.00 0.00 0.00 50 1014.6
20200219074405 50 105 14.0 30.0 0.00 0.00 0.00 50 1014.5
20200219073405 50 101 14.0 28.0 0.00 0.00 0.00 49 1014.6
20200219072405 51 105 13.0 24.0 0.00 0.00 0.00 48 1014.4
20200219071405 51 109 12.0 29.0 0.00 0.00 0.00 48 1014.7
20200219070405 51 114 13.0 29.0 0.00 0.00 0.00 48 1014.5
20200219065405 51 111 15.0 29.0 0.00 0.00 0.00 47 1014.7
20200219064405 51 108 14.0 28.0 0.00 0.00 0.00 47 1014.7
20200219063405 51 115 12.0 29.0 0.00 0.00 0.00 47 1014.7
20200219062405 51 105 14.0 26.0 0.00 0.00 0.00 48 1014.7
20200219061405 51 104 13.0 26.0 0.00 0.00 0.00 48 1014.6
20200219060405 51 103 13.0 26.0 0.00 0.00 0.00 48 1014.3
20200219055405 51 111 15.0 26.0 0.00 0.00 0.00 48 1014.2
20200219054405 52 102 14.0 26.0 0.00 0.00 0.00 47 1014.4
20200219053405 52 100 14.0 26.0 0.00 0.00 0.00 47 1014.3
20200219052405 53 111 14.0 28.0 0.00 0.00 0.00 46 1014.2
20200219051405 53 106 13.0 26.0 0.00 0.00 0.00 46 1014.3
20200219050405 53 100 15.0 26.0 0.00 0.00 0.00 46 1014.2
20200219045405 53 97 13.0 28.0 0.00 0.00 0.00 47 1014.1
20200219044405 53 104 14.0 29.0 0.00 0.00 0.00 46 1014.0
20200219043405 53 104 14.0 29.0 0.00 0.00 0.00 47 1013.8
20200219042405 53 99 13.0 29.0 0.00 0.00 0.00 47 1013.8
20200219041405 53 102 14.0 31.0 0.00 0.00 0.00 47 1013.7
20200219040405 53 115 14.0 26.0 0.00 0.00 0.00 48 1013.7
20200219035405 54 104 12.0 26.0 0.00 0.00 0.00 47 1013.7
20200219034405 54 106 13.0 25.0 0.00 0.00 0.00 46 1013.8
20200219033405 55 109 11.0 23.0 0.00 0.00 0.00 45 1013.8
20200219032405 55 107 11.0 22.0 0.00 0.00 0.00 45 1013.7
20200219031405 55 107 10.0 22.0 0.00 0.00 0.00 45 1013.5
20200219030405 55 113 9.0 20.0 0.00 0.00 0.00 45 1013.5
20200219025405 55 95 10.0 23.0 0.00 0.00 0.00 45 1013.4
20200219023405 56 103 9.0 25.0 0.00 0.00 0.00 45 1013.4
20200219022405 56 106 10.0 20.0 0.00 0.00 0.00 45 1013.3
20200219021405 56 112 8.0 18.0 0.00 0.00 0.00 45 1013.0
20200219015405 56 109 7.0 16.0 0.00 0.00 0.00 45 1013.0
20200219014405 57 113 9.0 18.0 0.00 0.00 0.00 45 1012.9
20200219013405 57 115 8.0 18.0 0.00 0.00 0.00 45 1012.8
20200219012405 57 112 7.0 14.0 0.00 0.00 0.00 45 1012.8
20200219011405 58 125 8.0 17.0 0.00 0.00 0.00 44 1012.6
20200219010405 58 104 9.0 17.0 0.00 0.00 0.00 44 1012.6
20200219005405 59 106 9.0 20.0 0.00 0.00 0.00 43 1012.4
20200219004405 59 101 10.0 20.0 0.00 0.00 0.00 42 1012.2
20200219003405 60 104 9.0 20.0 0.00 0.00 0.00 41 1012.1
20200219002405 61 101 6.0 16.0 0.00 0.00 0.00 40 1011.9
20200219001405 62 103 7.0 17.0 0.00 0.00 0.00 38 1011.9
20200219000405 63 113 8.0 17.0 0.00 0.00 0.00 37 1011.7
20200218235405 63 105 9.0 16.0 0.00 0.00 0.00 37 1011.6
20200218234420 63 115 7.0 18.0 0.00 0.00 0.00 36 1011.4
20200218233405 64 103 5.0 17.0 0.00 0.00 0.00 36 1011.4
20200218232405 64 101 6.0 14.0 0.00 0.00 0.00 35 1011.4
20200218230405 65 99 5.0 12.0 0.00 0.00 0.00 34 1011.5
20200218225405 65 121 7.0 14.0 0.00 0.00 0.00 35 1011.6
20200218224405 65 101 6.0 12.0 0.00 0.00 0.00 34 1011.5
20200218223405 66 102 6.0 14.0 0.00 0.00 0.00 33 1011.4
20200218222405 67 140 6.0 12.0 0.00 0.00 0.00 31 1011.4
20200218221405 67 127 5.0 12.0 0.00 0.00 0.00 29 1011.5
20200218220405 68 136 5.0 12.0 0.00 0.00 0.00 29 1011.6
20200218215405 67 153 5.0 10.0 0.00 0.00 0.00 30 1011.6
20200218214405 67 156 5.0 9.0 0.00 0.00 0.00 30 1011.6
20200218213405 67 155 6.0 12.0 0.00 0.00 0.00 30 1011.8
20200218212405 67 114 5.0 12.0 0.00 0.00 0.00 31 1011.7
20200218211405 67 121 4.0 12.0 0.00 0.00 0.00 30 1011.7
20200218210405 67 124 4.0 12.0 0.00 0.00 0.00 30 1011.9
20200218205405 67 108 2.0 10.0 0.00 0.00 0.00 28 1012.0
20200218204405 67 143 4.0 12.0 0.00 0.00 0.00 28 1012.1
20200218202405 67 150 6.0 12.0 0.00 0.00 0.00 28 1012.3
20200218200405 67 151 5.0 10.0 0.00 0.00 0.00 29 1012.6
20200218195405 67 115 5.0 12.0 0.00 0.00 0.00 29 1012.6